Location: Palomar Mountain Lodge
(33.3110°N, 116.8495°W)
Time: 21:41:56
(UTC-07:00)

Cosmos 1741 Rocket - Pass Details

Date: 12 July 2018
Orbit: 762 x 782 km, 74.0° (Epoch: 16 July)

Event Time Altitude Azimuth Distance (km) Brightness Sun altitude
Rises 20:43:26 0° 180° (S) 3,231 6.9 -8.9°
Reaches altitude 10° 20:45:53 10° 174° (S) 2,304 6.1 -9.3°
Maximum altitude 20:50:51 46° 102° (ESE) 1,027 4.3 -10.2°
Drops below altitude 10° 20:55:50 10° 30° (NNE) 2,306 6.6 -11.0°
Sets 20:58:17 0° 25° (NNE) 3,233 7.4 -11.4°
